Tracking 19149 objects as of 20-Apr-2018
HD Live streaming from Space Station
objects crossing your sky now

COSMOS 1932

Track COSMOS 1932 now!
10-day predictions
COSMOS 1932 is classified as:


NORAD ID: 18957
Int'l Code: 1988-019A
Perigee: 941.3 km
Apogee: 1,003.0 km
Inclination: 65.0 °
Period: 104.4 minutes
Semi major axis: 7343 km
RCS: 2.9305 m2 (large)
Launch date: March 14, 1988
Source: Commonwealth of Independent States (former USSR) (CIS)
Launch site: TYURATAM MISSILE AND SPACE COMPLEX (TTMTR)
aabbcc
Your satellite tracking list
Your tracking list is empty




NASA's NSSDC Master Catalog

Two Line Element Set (TLE):
1 18957U 88019A   18109.78238387 -.00000073  00000-0  13427-4 0  9993
2 18957  65.0446 223.4257 0042013 179.5014 180.6094 13.79674275517966
Source of the keplerian elements: AFSPC